Date String (YYYY-MM-DD hh:mm:ss) UTC,Instrument flags,absolute air pressure of the measurement (hPa),sample flow rate (lpm),inlet stack bypass flow (lpm),air temperature of the measurement (°C),ambient temperature measured by the external sensor (°C),aerosol sample conditioner tube jacket temperature (°C),OPC LED temperature (°C),internal box temperature (°C),relative humidity of the measurement (%),span deviation,mass concentration of particles derived from Lorenz-Mie calculation of OPC scattering (μg/m³),mass concentration of particles derived from Lorenz-Mie calculation of OPC scattering (μg/m³),mass concentration of particles derived from Lorenz-Mie calculation of OPC scattering (μg/m³)
DateTimeUTC,F1_M11,P_M11,Q1_M11,Q2_M11,T1_M11,T2_M11,T3_M11,T4_M11,T5_M11,U1_M11,ZSPAN_M11,X0_M11,X2_M11,X1_M11
2024-02-17 19:00:00,SystemResetWarning,0834.3,5.00,000.00,018.3,017.6,000.0,027.0,020.0,13.2,0000.0,0009.39,0006.64,0006.20
2024-02-17 19:01:00,SystemResetWarning,0834.3,5.01,000.00,018.3,017.6,000.0,027.0,020.0,12.4,0000.0,0009.93,0006.66,0006.19
2024-02-17 19:02:00,SystemResetWarning,0834.3,5.01,000.00,018.3,017.6,000.0,027.0,020.0,12.7,0000.0,0009.95,0006.65,0006.19
2024-02-17 19:03:00,SystemResetWarning,0834.3,5.00,000.00,018.3,017.6,000.0,027.0,020.0,12.0,0000.0,0009.94,0006.66,0006.20
2024-02-17 19:04:00,SystemResetWarning,0834.3,5.00,000.00,018.3,017.6,000.0,027.0,020.0,12.4,0000.0,0009.97,0006.68,0006.23
2024-02-17 19:05:00,SystemResetWarning,0834.2,5.00,000.00,018.3,017.6,000.0,027.0,020.0,11.8,0000.0,0010.07,0006.72,0006.25
2024-02-17 19:06:00,SystemResetWarning,0834.2,5.00,000.00,018.3,017.6,000.0,027.0,020.0,11.8,0000.0,0010.00,0006.72,0006.26
2024-02-17 19:07:00,SystemResetWarning,0834.2,5.00,000.00,018.3,017.5,000.0,027.0,020.0,12.2,0000.0,0009.91,0006.73,0006.27
2024-02-17 19:08:00,SystemResetWarning,0834.2,4.99,000.00,018.3,017.5,000.0,027.0,020.0,13.1,0000.0,0010.04,0006.75,0006.30
2024-02-17 19:09:00,SystemResetWarning,0834.2,5.00,000.00,018.3,017.5,000.0,027.0,020.0,12.6,0000.0,0010.04,0006.78,0006.31
2024-02-17 19:10:00,SystemResetWarning,0834.2,5.01,000.00,018.3,017.5,000.0,027.0,020.0,12.2,0000.0,0010.02,0006.76,0006.31
2024-02-17 19:11:00,SystemResetWarning,0834.2,5.01,000.00,018.3,017.6,000.0,027.0,020.0,12.1,0000.0,0010.05,0006.77,0006.32
2024-02-17 19:12:00,SystemResetWarning,0834.2,4.99,000.00,018.3,017.5,000.0,027.0,020.0,12.1,0000.0,0009.92,0006.76,0006.33
2024-02-17 19:13:00,SystemResetWarning,0834.2,4.99,000.00,018.3,017.6,000.0,027.0,020.0,12.6,0000.0,0009.89,0006.75,0006.33
2024-02-17 19:14:00,SystemResetWarning,0834.2,5.00,000.00,018.3,017.6,000.0,027.0,020.0,12.1,0000.0,0010.28,0006.76,0006.32
2024-02-17 19:15:00,SystemResetWarning,0834.2,5.01,000.00,018.3,017.6,000.0,027.0,020.0,11.8,0000.0,0010.72,0006.75,0006.30
2024-02-17 19:16:00,SystemResetWarning,0834.1,5.02,000.00,018.3,017.6,000.0,027.0,020.0,12.0,0000.0,0010.89,0006.76,0006.30
2024-02-17 19:17:00,SystemResetWarning,0834.1,5.00,000.00,018.3,017.6,000.0,027.0,020.0,12.5,0000.0,0011.09,0006.81,0006.31
2024-02-17 19:18:00,SystemResetWarning,0834.0,4.99,000.00,018.3,017.6,000.0,027.0,020.0,12.9,0000.0,0011.58,0006.83,0006.31
2024-02-17 19:19:00,SystemResetWarning,0834.0,4.99,000.00,018.3,017.6,000.0,026.9,020.0,12.5,0000.0,0011.48,0006.83,0006.31
2024-02-17 19:20:00,SystemResetWarning,0834.0,5.00,000.00,018.3,017.6,000.0,027.0,020.0,12.5,0000.0,0011.46,0006.83,0006.31
2024-02-17 19:21:00,SystemResetWarning,0834.0,5.01,000.00,018.3,017.6,000.0,027.0,020.0,13.0,0000.2,0011.42,0006.84,0006.32
2024-02-17 19:22:00,SystemResetWarning,0834.0,5.01,000.00,018.3,017.6,000.0,027.0,020.0,12.5,0000.5,0011.31,0006.84,0006.32
2024-02-17 19:23:00,SystemResetWarning,0834.0,5.00,000.00,018.3,017.6,000.0,027.0,020.0,12.1,0001.1,0010.75,0006.81,0006.31
2024-02-17 19:24:00,SystemResetWarning,0834.0,4.99,000.00,018.3,017.6,000.0,027.0,020.0,12.4,0001.7,0010.85,0006.81,0006.31
2024-02-17 19:25:00,SystemResetWarning,0833.9,5.00,000.00,018.3,017.6,000.0,027.0,020.0,13.1,0002.5,0010.58,0006.79,0006.31
2024-02-17 19:26:00,SystemResetWarning,0833.9,5.02,000.00,018.3,017.6,000.0,027.0,020.0,12.7,0002.3,0010.37,0006.80,0006.32
2024-02-17 19:27:00,SystemResetWarning,0833.9,5.00,000.00,018.3,017.6,000.0,027.0,020.0,12.3,0002.5,0010.70,0006.82,0006.33
2024-02-17 19:28:00,SystemResetWarning,0833.9,4.99,000.00,018.3,017.6,000.0,027.0,020.0,12.5,0001.9,0010.54,0006.77,0006.34
2024-02-17 19:29:00,SystemResetWarning,0833.9,4.99,000.00,018.3,017.6,000.0,027.0,020.0,12.7,0001.6,0010.33,0006.76,0006.34
2024-02-17 19:30:00,SystemResetWarning,0833.8,5.01,000.00,018.3,017.6,000.0,027.0,020.0,12.4,0001.6,0010.27,0006.76,0006.34
2024-02-17 19:31:00,SystemResetWarning,0833.8,5.01,000.00,018.3,017.6,000.0,027.0,020.0,12.3,0002.5,0010.26,0006.74,0006.33
2024-02-17 19:32:00,SystemResetWarning,0833.8,5.00,000.00,018.3,017.6,000.0,027.0,020.0,12.5,0003.0,0010.51,0006.75,0006.32
2024-02-17 19:33:00,SystemResetWarning,0833.8,4.99,000.00,018.3,017.6,000.0,027.0,020.0,12.8,0002.9,0010.86,0006.78,0006.32
2024-02-17 19:34:00,SystemResetWarning,0833.8,5.00,000.00,018.3,017.6,000.0,027.0,020.0,12.8,0003.2,0011.26,0006.81,0006.33
2024-02-17 19:35:00,SystemResetWarning,0833.7,5.00,000.00,018.3,017.5,000.0,027.0,020.0,12.7,0003.2,0011.34,0006.86,0006.33
2024-02-17 19:36:00,SystemResetWarning,0833.8,5.00,000.00,018.3,017.5,000.0,027.0,020.0,12.7,0003.0,0011.56,0006.88,0006.33
2024-02-17 19:37:00,SystemResetWarning,0833.7,4.99,000.00,018.3,017.6,000.0,027.0,020.0,12.9,0000.5,0011.52,0006.87,0006.33
2024-02-17 19:38:00,SystemResetWarning,0833.7,5.00,000.00,018.3,017.6,000.0,027.0,020.0,13.1,0002.7,0011.32,0006.86,0006.31
2024-02-17 19:39:00,SystemResetWarning,0833.7,5.00,000.00,018.3,017.5,000.0,027.0,020.0,12.8,0002.7,0011.28,0006.84,0006.28
2024-02-17 19:40:00,SystemResetWarning,0833.7,5.00,000.00,018.3,017.6,000.0,027.0,020.0,13.1,0004.2,0011.18,0006.83,0006.25
2024-02-17 19:41:00,SystemResetWarning,0833.7,5.01,000.00,018.3,017.6,000.0,027.0,020.0,12.8,0004.3,0011.04,0006.83,0006.24
2024-02-17 19:42:00,SystemResetWarning,0833.7,5.01,000.00,018.3,017.6,000.0,027.0,020.0,12.7,0004.1,0010.98,0006.83,0006.24
2024-02-17 19:43:00,SystemResetWarning,0833.7,5.01,000.00,018.3,017.6,000.0,027.0,020.0,12.8,0004.2,0011.21,0006.80,0006.22
2024-02-17 19:44:00,SystemResetWarning,0833.7,4.99,000.00,018.3,017.5,000.0,027.0,020.0,13.0,0003.8,0011.71,0006.75,0006.21
2024-02-17 19:45:00,SystemResetWarning,0833.6,4.99,000.00,018.3,017.5,000.0,027.0,020.0,13.3,0003.6,0011.33,0006.73,0006.22
2024-02-17 19:46:00,SystemResetWarning,0833.6,5.00,000.00,018.3,017.5,000.0,027.0,020.0,12.8,0003.3,0011.22,0006.72,0006.22
2024-02-17 19:47:00,SystemResetWarning,0833.6,5.00,000.00,018.3,017.5,000.0,026.9,020.0,12.5,0003.2,0011.03,0006.71,0006.23
2024-02-17 19:48:00,SystemResetWarning,0833.6,5.01,000.00,018.3,017.5,000.0,027.0,020.0,13.1,0002.7,0010.73,0006.70,0006.22
2024-02-17 19:49:00,SystemResetWarning,0833.6,5.00,000.00,018.3,017.6,000.0,027.0,020.0,13.4,0002.4,0011.39,0006.69,0006.22
2024-02-17 19:50:00,SystemResetWarning,0833.6,5.01,000.00,018.3,017.6,000.0,027.0,020.0,13.2,0002.3,0011.78,0006.70,0006.24
2024-02-17 19:51:00,SystemResetWarning,0833.6,5.00,000.00,018.3,017.6,000.0,027.0,020.0,12.8,0002.3,0011.86,0006.71,0006.25
2024-02-17 19:52:00,SystemResetWarning,0833.6,5.00,000.00,018.3,017.6,000.0,027.0,020.0,12.9,0001.6,0012.04,0006.70,0006.25
2024-02-17 19:53:00,SystemResetWarning,0833.6,5.00,000.00,018.3,017.6,000.0,027.0,020.0,13.3,0000.0,0012.00,0006.66,0006.24
2024-02-17 19:54:00,SystemResetWarning,0833.5,5.00,000.00,018.3,017.6,000.0,027.0,020.0,14.0,0000.0,0012.19,0006.66,0006.24
2024-02-17 19:55:00,SystemResetWarning,0833.5,5.00,000.00,018.3,017.6,000.0,027.0,020.0,13.9,0000.0,0011.47,0006.68,0006.26
2024-02-17 19:56:00,SystemResetWarning,0833.4,4.99,000.00,018.3,017.6,000.0,027.0,020.0,13.6,0000.0,0011.88,0006.72,0006.25
2024-02-17 19:57:00,SystemResetWarning,0833.4,5.00,000.00,018.3,017.6,000.0,027.0,020.0,13.1,0000.0,0012.76,0006.73,0006.25
2024-02-17 19:58:00,SystemResetWarning,0833.4,5.00,000.00,018.3,017.6,000.0,027.0,020.0,14.0,0000.0,0013.01,0006.70,0006.25
2024-02-17 19:59:00,SystemResetWarning,0833.4,5.01,000.00,018.3,017.6,000.0,027.0,020.0,13.8,0000.0,0013.29,0006.72,0006.25
